Regional Weather Roundup
Issued by NWS

Home | Current Version | Previous Version | Graphics & Text | Print | Product List | Glossary On
Versions: 1 2 3 4 5 6 7 8 9 10 11 12 13 14 15 16 17 18 19 20 21 22 23 24 25 26 27 28 29 30 31 32 33 34 35 36 37 38 39 40 41 42 43 44 45 46 47 48 49 50
000
ASUS44 KMEG 201010
RWRTN
TENNESSEE HOURLY STATE WEATHER ROUNDUP
NATIONAL WEATHER SERVICE MEMPHIS TN
500 AM CDT WED AUG 20 2014

TNZ002-004-019-021-049-052-054-088>092-201100-
WEST TENNESSEE

CITY           SKY/WX    TMP DP  RH WIND       PRES   REMARKS
MEMPHIS INTL   CLEAR     78  74  87 CALM      29.94R
NWS MEMPHIS      N/A     78 N/A N/A MISG        N/A
JACKSON        CLEAR     77  75  93 SW7       29.93R
DYERSBURG      CLEAR     79  68  69 SW6       29.91R
UNION CITY     CLEAR     75  75 100 SW6       29.88R
PARIS          CLEAR     72  72 100 SW5       29.91R
HUNTINGDON     CLEAR     75  73  93 SW3       29.91R
LEXINGTON      CLEAR     73  72  94 S5        29.92R
SAVANNAH       CLEAR     73  73 100 CALM      29.95R
$$

TNZ008-025-027-028-033-062-065-066-201100-
NORTH MIDDLE TENNESSEE

CITY           SKY/WX    TMP DP  RH WIND       PRES   REMARKS
NASHVILLE      PTCLDY    78  73  84 CALM      29.92R
PORTLAND       PTCLDY    75  72  88 SW5       29.91R
CLARKSVILLE    CLEAR     75  72  90 SW3       29.90R
SMYRNA         CLEAR     73  72  97 CALM      29.93R
MURFREESBORO   MOCLDY    76  71  84 S3        29.92S
COOKEVILLE     MOCLDY    72  72 100 CALM      29.96R
GALLATIN       PTCLDY    73  73 100 CALM      29.92R
CROSSVILLE     PTCLDY    71  67  87 CALM      30.01R FOG
$$

TNZ061-075-076-078-094-096-097-201100-
SOUTH MIDDLE TENNESSEE

CITY           SKY/WX    TMP DP  RH WIND       PRES   REMARKS
LEWISBURG      CLEAR     76  71  84 SW5       29.94R
FAYETTEVILLE   PTCLDY    72  72 100 SW3       29.97R
TULLAHOMA      CLEAR     72  70  94 CALM      29.98R
WINCHESTER     CLEAR     72  70  94 CALM      29.97S
MCMINNVILLE    PTCLDY    73  73 100 SW3       29.96S
COLUMBIA       CLEAR     75  75 100 SW3       29.93R
SHELBYVILLE    CLEAR     73  73 100 CALM      29.96R
$$

TNZ017-018-042-046-047-201100-
NORTHEAST TENNESSEE

CITY           SKY/WX    TMP DP  RH WIND       PRES   REMARKS
TRI CITIES     MOCLDY    66  64  93 CALM      29.99F FOG
ELIZABETHTON   CLOUDY    66  66 100 CALM      30.01S
$$

TNZ012-013-036-069-073-074-201100-
CENTRAL EAST TENNESSEE

CITY           SKY/WX    TMP DP  RH WIND       PRES   REMARKS
KNOXVILLE      CLEAR     70  68  93 CALM      29.96R
OAK RIDGE      CLOUDY    72  70  93 CALM      29.97R
GATLINBURG     MOSUNNY   64  64 100 CALM      29.97R
MORRISTOWN     SUNNY     66  66 100 CALM      29.99R
$$

TNZ083-085-099-201100-
SOUTHEAST TENNESSEE

CITY           SKY/WX    TMP DP  RH WIND       PRES   REMARKS
CHATTANOOGA    PTCLDY    73  70  90 CALM      29.97R
$$

SKY/WX REPORTED AS FAIR MEANS FEW OR NO CLOUDS BELOW
12 THOUSAND FEET.




USA.gov is the U.S. government's official web portal to all federal, state and local government web resources and services.